Van, Turkey

12:10 PM +03 on May 25, 2017 (GMT +0300)
Van

Weather History for LTCI - December, 2013

Change the Weather History Date:

Tuesday, December 10, 2013

  Actual Average Record
Temperature  
Mean Temperature 19 °F -  
Max Temperature 29 °F 37 °F 59 °F (1998)
Min Temperature 9 °F 22 °F 9 °F (2013)
Degree Days  
Heating Degree Days 46    
Moisture  
Dew Point 8 °F    
Average Humidity 57    
Maximum Humidity 100    
Minimum Humidity 16    
Precipitation  
Precipitation 0.03 in 0.04 in - ()
Sea Level Pressure  
Sea Level Pressure 29.91 in    
Wind  
Wind Speed 5 mph ()    
Max Wind Speed 12 mph    
Max Gust Speed -    
Visibility 5.6 miles    
Events Snow    
Averages and records for this station are not official NWS values.
T = Trace of Precipitation, MM = Missing Value Source: Averaged Metar Reports

Daily Weather History Graph

Daily Weather History Graph

Search for Another Location

Airport or City:

Trip Planner

Search our weather history database for the weather conditions in past years. The results will help you decide how hot, cold, wet, or windy it might be!

Date:

Astronomy

Dec. 10, 2013 Rise Set
Actual Time 6:13 AM EET 3:45 PM EET
Civil Twilight 5:43 AM EET 4:15 PM EET
Nautical Twilight 5:10 AM EET 4:48 PM EET
Astronomical Twilight 4:38 AM EET 5:20 PM EET
Moon 11:31 AM EET (12/10) No Moon Set
Length of Visible Light 10h 32m
Length of Day
9h 32m
First Quarter, 58% of the Moon is Illuminated
Dec 10
First Quarter
Dec 17
Full
Dec 25
Last Quarter
Jan 1
New
Jan 8
First Quarter

Hourly Weather History & Observations

Time (EET) Temp. Windchill Dew Point Humidity Pressure Visibility Wind Dir Wind Speed Gust Speed Precip Events Conditions
12:50 AM 14.0 °F 5.1 °F 6.8 °F 73% 29.98 in 6.2 mi SE 5.8 mph - N/A   Mostly Cloudy
1:50 AM 12.2 °F - 5.0 °F 73% 29.98 in 6.2 mi Variable 2.3 mph - N/A   Mostly Cloudy
2:00 AM 12 °F - 6 °F 66%  in 7 mi NW 2.3 mph - -   Mostly Cloudy
2:50 AM 10.4 °F - 3.2 °F 73% 29.98 in 6.2 mi Calm Calm - N/A   Mostly Cloudy
3:50 AM 10.4 °F 4.0 °F 1.4 °F 67% 29.98 in 6.2 mi ENE 3.5 mph - N/A   Mostly Cloudy
4:50 AM 10.4 °F 2.2 °F 1.4 °F 67% 29.98 in 6.2 mi NE 4.6 mph - N/A   Scattered Clouds
5:00 AM 10 °F - 2 °F 59%  in 6 mi NE 4.6 mph - -   Partly Cloudy
5:50 AM 15.8 °F 2.7 °F -0.4 °F 49% 29.95 in 6.2 mi SE 11.5 mph - N/A   Scattered Clouds
6:50 AM 14.0 °F 8.2 °F 3.2 °F 62% 29.95 in 6.2 mi NNE 3.5 mph - N/A   Scattered Clouds
7:50 AM 23.0 °F 18.4 °F 10.4 °F 59% 29.95 in 6.2 mi ENE 3.5 mph - N/A   Partly Cloudy
8:00 AM 22 °F - 9 °F 43%  in 6 mi ENE 3.5 mph - -   Scattered Clouds
8:50 AM 24.8 °F 16.9 °F 6.8 °F 46% 29.95 in 6.2 mi SE 6.9 mph - N/A   Partly Cloudy
9:50 AM 26.6 °F 18.2 °F 3.2 °F 37% 29.92 in 6.2 mi SSE 8.1 mph - N/A   Scattered Clouds
10:50 AM 28.4 °F 21.2 °F 5.0 °F 37% 29.92 in 6.2 mi South 6.9 mph - N/A   Scattered Clouds
11:00 AM 29 °F - 3 °F 18%  in 6 mi South 6.9 mph - -   Partly Cloudy
11:50 AM 28.4 °F 22.2 °F 5.0 °F 37% 29.89 in 6.2 mi SSE 5.8 mph - N/A   Scattered Clouds
12:50 PM 28.4 °F 22.2 °F 6.8 °F 40% 29.89 in 6.2 mi SSE 5.8 mph - N/A   Scattered Clouds
1:50 PM 28.4 °F 21.2 °F 3.2 °F 34% 29.86 in 6.2 mi South 6.9 mph - N/A   Mostly Cloudy
2:00 PM 28 °F - -0 °F 16%  in 6 mi South 6.9 mph - -   Partly Cloudy
2:50 PM 26.6 °F 19.1 °F 5.0 °F 40% 29.86 in 6.2 mi South 6.9 mph - N/A   Mostly Cloudy
3:50 PM 26.6 °F 21.2 °F 12.2 °F 55% 29.86 in 5.0 mi ESE 4.6 mph - N/A   Mostly Cloudy
4:50 PM 24.8 °F 15.3 °F 14.0 °F 64% 29.86 in 4.3 mi SE 9.2 mph - N/A   Mostly Cloudy
5:00 PM 25 °F - 12 °F 45%  in 4 mi SE 9.2 mph - -   Haze
5:50 PM 24.8 °F 15.3 °F 10.4 °F 54% 29.86 in 4.3 mi SE 9.2 mph - N/A   Mostly Cloudy
6:50 PM 24.8 °F 14.6 °F 14.0 °F 64% 29.86 in 5.0 mi South 10.4 mph - N/A   Mostly Cloudy
7:50 PM 23.0 °F 13.1 °F 14.0 °F 68% 29.86 in 5.0 mi SSE 9.2 mph - N/A   Mostly Cloudy
8:00 PM 24 °F - 13 °F 50%  in 5 mi SSE 9.2 mph - -   Haze
8:50 PM 24.8 °F 17.9 °F 12.2 °F 59% 29.86 in 6.2 mi South 5.8 mph - N/A   Mostly Cloudy
9:07 PM 24.8 °F 19.1 °F 12.2 °F 59% 29.86 in 5.0 mi South 4.6 mph - N/A Snow Light Snow
9:50 PM 21.2 °F 13.6 °F 19.4 °F 93% 29.86 in 2.5 mi SE 5.8 mph - N/A Snow Light Snow
10:50 PM 19.4 °F 12.8 °F 19.4 °F 100% 29.86 in 5.0 mi South 4.6 mph - N/A Snow Light Snow
11:00 PM 20 °F - 19 °F 95%  in 5 mi South 4.6 mph - - Snow Light Snow
11:50 PM 21.2 °F 13.6 °F 17.6 °F 86% 29.86 in 5.0 mi SSE 5.8 mph - N/A Snow Light Snow